OpenBCM V2.0.2 (Linux)

Packet Radio Mailbox

IZ3LSV

[San Dona' di P. JN]

 Login: GUEST





  
CX2SA  > KEPS     21.07.12 03:16l 95 Lines 2463 Bytes #999 (0) @ WW
BID : ORB12202.O
Read: GUEST
Subj: Orbital Elements  12202.OSCAR
Path: IZ3LSV<IQ5KG<IK1NHL<CX2SA
Sent: 120721/0112Z @:CX2SA.SAL.URY.SA #:63437 [Salto] FBB7.00e $:ORB12202.O
From: CX2SA@CX2SA.SAL.URY.SA
To  : KEPS@AMSAT


HR AMSAT ORBITAL ELEMENTS FOR OSCAR SATELLITES
FROM WA5QGD FORT WORTH,TX July 20, 2012
Send SUBSCRIBE KEPS/UNSUBSCRIBE KEPS to majordomo@amsat.org only
BID: ORB12202.O
TO ALL RADIO AMATEURS BT

Satellite: AO-07
Catalog number: 07530
Epoch time:      12201.62616761
Element set:     434
Inclination:      101.4038 deg
RA of node:       197.5860 deg
Eccentricity:    0.0011582
Arg of perigee:   218.7615 deg
Mean anomaly:     141.2625 deg
Mean motion:   12.53590272 rev/day
Decay rate:       -2.7e-07 rev/day^2
Epoch rev:           72411
Checksum:              267

Satellite: FO-29
Catalog number: 24278
Epoch time:      12201.87049254
Element set:    0900
Inclination:      098.5861 deg
RA of node:       298.2513 deg
Eccentricity:    0.0349995
Arg of perigee:   304.8441 deg
Mean anomaly:     052.0244 deg
Mean motion:   13.52985103 rev/day
Decay rate:       -2.7e-07 rev/day^2
Epoch rev:           78637
Checksum:              324

Satellite: SO-33
Catalog number: 25509
Epoch time:      12201.89954958
Element set:    0281
Inclination:      031.4294 deg
RA of node:       148.5631 deg
Eccentricity:    0.0352300
Arg of perigee:   129.6238 deg
Mean anomaly:     233.6017 deg
Mean motion:   14.28792234 rev/day
Decay rate:       1.75e-06 rev/day^2
Epoch rev:           71733
Checksum:              304

Satellite: RS-22
Catalog number: 27939
Epoch time:      12202.69108904
Element set:     555
Inclination:      097.8101 deg
RA of node:       041.7851 deg
Eccentricity:    0.0013842
Arg of perigee:   154.5389 deg
Mean anomaly:     205.6501 deg
Mean motion:   14.64071857 rev/day
Decay rate:       2.87e-06 rev/day^2
Epoch rev:           47078
Checksum:              313

Satellite: VO-52
Catalog number: 28650
Epoch time:      12201.64364642
Element set:    0159
Inclination:      097.5963 deg
RA of node:       231.0093 deg
Eccentricity:    0.0025177
Arg of perigee:   295.8719 deg
Mean anomaly:     063.9912 deg
Mean motion:   14.83054690 rev/day
Decay rate:      1.165e-05 rev/day^2
Epoch rev:           38978
Checksum:              331

Satellite: HO-68
Catalog number: 36122
Epoch time:      12202.73471645
Element set:     663
Inclination:      100.3600 deg
RA of node:       261.4026 deg
Eccentricity:    0.0007704
Arg of perigee:   035.5896 deg
Mean anomaly:     324.5738 deg
Mean motion:   13.16296872 rev/day
Decay rate:       -4.4e-07 rev/day^2
Epoch rev:           12480
Checksum:              284



Read previous mail | Read next mail


 01.05.2026 19:59:22lGo back Go up